Home   Weather   Ljubljana   Past weeks

Flag for Slovenia Past Weather in Ljubljana, Slovenia — Yesterday and Last 2 Weeks

Now
71 °F

Thundershowers. Overcast.


Feels Like: 77 °F
Forecast: 52 / 76 °F
Wind: 6 mph from Southwest

Location: Ljubljana / Bezigrad

Current Time: May 22, 2017 at 9:35:13 pm

Latest Report: May 22, 2017 at 8:00 pm


Visibility: 13 mi

Pressure: 29.97 "Hg

Humidity: 48%

Dew Point: 50 °F

Location of LjubljanaLocation

Past Weather in Ljubljana — Graph

°F

Ljubljana Temperature Yesterday

Maximum temperature yesterday: 73 °F (at 6:00 pm)
Minimum temperature yesterday: 54 °F (at 6:00 am)
Average temperature yesterday: 62 °F

High & Low Weather Summary for the Past Weeks

 TemperatureHumidityPressure
High79 °F (May 18, 5:00 pm)96% (May 16, 6:00 am)30.40 "Hg (May 16, 6:00 am)
Low42 °F (May 10, 6:00 am)32% (May 19, 3:00 pm)29.68 "Hg (May 12, 5:00 am)
Average61 °F67%30.00 "Hg
* Reported May 7 8:00 pm — May 22 8:00 pm, Ljubljana. Weather by CustomWeather, © 2017

Note: Actual official high and low records may vary slightly from our data, if they occured in-between our weather recording intervals... More about our weather records

Advertising

Ljubljana Weather History for the Previous 24 Hours

Scroll right to see more
 ConditionsComfort  
Time TempWeatherWind HumidityBarometerVisibility
8:00 pm
Mon, May 22
71 °FThundershowers. Overcast.6 mph48%29.97 "Hg12 mi
7:00 pm75 °FMild.2 mph43%29.95 "HgN/A
6:00 pm79 °FPleasantly warm.2 mph34%29.93 "HgN/A
5:00 pm79 °FPleasantly warm.2 mph36%29.95 "HgN/A
4:00 pm78 °FPleasantly warm.2 mph36%29.97 "HgN/A
3:00 pm76 °FScattered clouds.1 mph37%29.99 "Hg25 mi
2:00 pm75 °FPassing clouds.2 mph39%30.02 "Hg25 mi
1:00 pm72 °FPassing clouds.2 mph45%30.04 "Hg25 mi
12:00 pm70 °FPassing clouds.1 mph49%30.07 "Hg25 mi
11:00 am69 °FPassing clouds.1 mph48%30.09 "Hg25 mi
9:00 am61 °FPassing clouds.1 mph66%30.13 "Hg25 mi
8:00 am59 °FSunny.1 mph72%30.14 "Hg25 mi
7:00 am55 °FPassing clouds.No wind81%30.15 "Hg25 mi
6:00 am52 °FScattered clouds.No wind88%30.16 "Hg25 mi
5:00 am53 °FCool.1 mph86%30.15 "HgN/A
4:00 am53 °FCool.No wind85%30.16 "HgN/A
3:00 am54 °FCool.No wind83%30.16 "HgN/A
2:00 am56 °FCool.No wind80%30.16 "HgN/A
1:00 am57 °FCool.1 mph76%30.16 "HgN/A
12:00 am59 °FCool.1 mph73%30.15 "HgN/A
11:00 pm
Sun, May 21
60 °FCool.No wind71%30.13 "HgN/A
10:00 pm62 °FPassing clouds.1 mph64%30.12 "Hg25 mi
9:00 pm66 °FPassing clouds.No wind53%30.10 "Hg25 mi
Weather by CustomWeather, © 2017

See weather overviewHow to use our weather pages